Regional Weather Roundup
Issued by NWS

Home | Current Version | Previous Version | Text Only | Print | Product List | Glossary Off
Versions: 1 2 3 4 5 6 7 8 9 10 11 12 13 14 15 16 17 18 19 20 21 22 23 24 25 26 27 28 29 30 31 32 33 34 35 36 37 38 39 40 41 42 43 44 45 46 47 48 49 50

000
ASUS45 KPSR 031900
RWRAZ

ARIZONA REGIONAL HOURLY WEATHER ROUNDUP
NATIONAL WEATHER SERVICE PHOENIX AZ
1200 PM MST SUN MAY 03 2015

NOTE: FAIR INDICATES FEW OR NO CLOUDS BELOW 12,000 FEET WITH NO
SIGNIFICANT WEATHER AND/OR OBSTRUCTIONS TO VISIBILITY.

AZZ001>003-036-032000-
NORTHWEST ARIZONA

CITY           SKY/WX    TMP DP  RH WIND       PRES   REMARKS
KINGMAN        SUNNY     83  29  14 SE17G25   29.93F
$$

AZZ004>008-015-016-018-032000-
NORTH CENTRAL ARIZONA

CITY           SKY/WX    TMP DP  RH WIND       PRES   REMARKS
GRAND CANYON   LGT RAIN  55  39  54 SE10G17   30.11F
WILLIAMS       PTSUNNY   64  36  34 SW14G22   30.17F
PRESCOTT       MOSUNNY   73  33  23 SE12G23   30.03F
FLAGSTAFF      NOT AVBL
PAYSON         MOSUNNY   72  34  25 S9G18     30.07F
PAGE           PTSUNNY   77  32  19 N13       29.98F
$$

AZZ009>014-017-032000-
NORTHEAST ARIZONA

CITY           SKY/WX    TMP DP  RH WIND       PRES   REMARKS
WINSLOW        LGT RAIN  63  39  42 VRB5G38   30.06R
SAINT JOHNS    MOSUNNY   71  29  21 VRB6      30.05F
WINDOW ROCK    CLOUDY    60  36  40 E10G21    30.09F
$$

AZZ023-032000-
GREATER PHOENIX AREA

CITY           SKY/WX    TMP DP  RH WIND       PRES   REMARKS
PHOENIX        MOSUNNY   89  44  20 CALM      29.84F
GLENDALE       MOSUNNY   90  43  19 S9        29.86F
DEER VALLEY    MOSUNNY   86  40  19 SW12G21   29.86F
SCOTTSDALE     SUNNY     86  41  20 S8        29.88F
MESA-FALCON    MOSUNNY   88  41  19 MISG      29.86F
MESA-GATEWAY   MOSUNNY   86  41  20 S7        29.88F
CHANDLER       MOSUNNY   88  43  20 W9        29.85F
$$

AZZ027-028-032000-
SOUTHWEST MARICOPA COUNTY AND PINAL COUNTY

CITY           SKY/WX    TMP DP  RH WIND       PRES   REMARKS
CASA GRANDE    SUNNY     88  43  20 S14       29.85F
$$

AZZ503-504-507>509-032000-
SOUTHEAST ARIZONA

CITY           SKY/WX    TMP DP  RH WIND       PRES   REMARKS
TUCSON         MOSUNNY   85  35  16 S7        29.92F
NOGALES        MOSUNNY   82  33  17 S13G20    29.98F
SIERRA VISTA   SUNNY     75  28  17 E15       30.03F
SAFFORD        SUNNY     85  38  18 MISG      29.91F
$$

AZZ020-021-025-026-031-032000-
SOUTHWEST ARIZONA

CITY           SKY/WX    TMP DP  RH WIND       PRES   REMARKS
YUMA           SUNNY     90  52  27 S14G24    29.81F
$$

CAZ031-033-041-043-047-048-061-032000-
SOUTHERN CALIFORNIA

CITY           SKY/WX    TMP DP  RH WIND       PRES   REMARKS
DOWNTOWN L.A.  SUNNY     73  55  53 W5        29.92S
L.A. AIRPORT   SUNNY     66  54  65 W13       29.94S
SAN DIEGO      PTSUNNY   67  53  61 W9        29.95F
BURBANK        SUNNY     72  50  45 S7        29.91F
ONTARIO        SUNNY     71  50  47 SW6       29.92F
RIVERSIDE      SUNNY     70  52  52 W8        29.92F
PALM SPRINGS   SUNNY     89  37  16 E5        29.81F
EL CENTRO NAS  SUNNY     87  47  24 NW8       29.80F
IMPERIAL       SUNNY     86  52  30 W7        29.78S
BLYTHE         SUNNY     90  46  21 S16G24    29.80F
$$

NVZ020-UTZ003-032000-
SOUTHERN NEVADA-UTAH

CITY           SKY/WX    TMP DP  RH WIND       PRES   REMARKS
LAS VEGAS      NOT AVBL
SALT LAKE CITY PTSUNNY   76  32  20 S15       29.88F
$$

NMZ009-TXZ055-032000-
NEW MEXICO-WEST TEXAS

CITY           SKY/WX    TMP DP  RH WIND       PRES   REMARKS
ALBUQUERQUE    MOSUNNY   75  33  21 VRB3      30.02F
EL PASO        PTSUNNY   83  35  18 VRB3      29.96F
$$


........................KEY........................
SKY/WX - SKY CONDITION/WEATHER
TMP    - TEMPERATURE IN FAHRENHEIT
DP     - DEW POINT IN FAHRENHEIT
RH     - RELATIVE HUMIDITY IN PERCENT
WIND   - DIRECTION AND SPEED IN MILES PER HOUR (MPH)
VRB    - VARIABLE WIND DIRECTION
PRES   - MEAN SEA LEVEL PRESSURE IN INCHES OF MERCURY
         F - FALLING PRESSURE   R - RISING PRESSURE
         S - STEADY PRESSURE
VSB    - VISIBILITY IN MILES
HX     - HEAT INDEX IN FAHRENHEIT
WCI    - WIND CHILL INDEX IN FAHRENHEIT
TC     - TEMPERATURE IN CELSIUS WHICH IS ALSO KNOWN AS
         TEMPERATURE IN CENTIGRADE
AFB    - AIR FORCE BASE
         LUKE AFB IS LUKE AIR FORCE BASE
         DAVIS-MONTHAN IS DAVIS-MONTHAN AIR FORCE BASE
NAS    - NAVAL AIR STATION
         EL CENTRO NAS IS EL CENTRO NAVAL AIR STATION
N/A    - NOT AVAILABLE




USA.gov is the U.S. government's official web portal to all federal, state and local government web resources and services.